Regional Weather Roundup
Issued by NWS

Home | Current Version | Previous Version | Graphics & Text | Print | Product List | Glossary On
Versions: 1 2 3 4 5 6 7 8 9 10 11 12 13 14 15 16 17 18 19 20 21 22 23 24 25 26 27 28 29 30 31 32 33 34 35 36 37 38 39 40 41 42 43 44 45 46 47 48 49 50
298
ASUS44 KMEG 061400
RWRTN
TENNESSEE HOURLY STATE WEATHER ROUNDUP
NATIONAL WEATHER SERVICE MEMPHIS TN
800 AM CST SAT FEB 06 2016

TNZ002-004-019-021-049-052-054-088>092-061500-
WEST TENNESSEE

CITY           SKY/WX    TMP DP  RH WIND       PRES   REMARKS
MEMPHIS INTL   PTSUNNY   36  27  69 CALM      30.39R
NWS MEMPHIS      N/A     33 N/A N/A MISG        N/A
JACKSON        MOSUNNY   27  24  89 CALM      30.40R
DYERSBURG      MOSUNNY   30  27  86 S3        30.40S
UNION CITY     SUNNY     27  25  93 CALM      30.37R
PARIS          SUNNY     30  25  80 CALM      30.37S
LEXINGTON      SUNNY     28  27  93 CALM      30.38R
$$

TNZ008-025-027-028-033-062-065-066-061500-
NORTH MIDDLE TENNESSEE

CITY           SKY/WX    TMP DP  RH WIND       PRES   REMARKS
NASHVILLE      PTSUNNY   31  23  72 CALM      30.40R
CLARKSVILLE    SUNNY     31  26  82 CALM      30.38R
COOKEVILLE     SUNNY     28  25  86 CALM      30.38S
CROSSVILLE     SUNNY     31  23  72 CALM      30.37R
$$

TNZ061-075-076-078-094-096-097-061500-
SOUTH MIDDLE TENNESSEE

CITY           SKY/WX    TMP DP  RH WIND       PRES   REMARKS
TULLAHOMA      SUNNY     30  27  86 CALM      30.39R
WINCHESTER     SUNNY     28  25  86 CALM      30.39S
MCMINNVILLE    SUNNY     30  25  80 CALM      30.39R
COLUMBIA       SUNNY     28  28 100 CALM      30.38S
SHELBYVILLE    SUNNY     28  25  86 CALM      30.41R
$$

TNZ017-018-042-046-047-061500-
NORTHEAST TENNESSEE

CITY           SKY/WX    TMP DP  RH WIND       PRES   REMARKS
TRI CITIES     PTSUNNY   27  21  78 NE3       30.40R
$$

TNZ012-013-036-069-073-074-061500-
CENTRAL EAST TENNESSEE

CITY           SKY/WX    TMP DP  RH WIND       PRES   REMARKS
KNOXVILLE      CLOUDY    29  21  72 NE6       30.41R WCI  23
OAK RIDGE      SUNNY     30  25  81 CALM      30.43R
GATLINBURG       N/A     27  21  80 CALM      30.40F
$$

TNZ083-085-099-061500-
SOUTHEAST TENNESSEE

CITY           SKY/WX    TMP DP  RH WIND       PRES   REMARKS
CHATTANOOGA    PTSUNNY   31  27  85 CALM      30.41S
$$

SKY/WX REPORTED AS FAIR MEANS FEW OR NO CLOUDS BELOW
12 THOUSAND FEET.





USA.gov is the U.S. government's official web portal to all federal, state and local government web resources and services.